Skip Navigation Linkswww.weather.gov 
NOAA logo - Click to go to the NOAA homepage National Weather Service   NWS logo - Click to go to the NWS homepage    
Western Region Headquarters
navigation bar decoration      
Regional Divisions
 
 
 
 
 
USA.gov is the U.S. government's official web portal to all federal, state and local government web resources and services.
spacer
Printer Friendly  |   Go Back  |  Version: Current   1   2   3   4   5   6   7   8   9   10   |  Font:  A A A  |  

HOURLY WEATHER ROUNDUP
 
 ASUS45 KREV 292010
RWRNV
NEVADA REGIONAL WEATHER ROUNDUP
NATIONAL WEATHER SERVICE RENO NV
100 PM PDT SUN MAR 29 2015

NOTE: "FAIR" INDICATES FEW OR NO CLOUDS BELOW 12,000 FEET WITH NO
SIGNIFICANT WEATHER AND/OR OBSTRUCTIONS TO VISIBILITY.

NVZ001-003-004-292100-
WESTERN NEVADA

CITY SKY/WX TMP DP RH WIND PRES REMARKS
RENO MOSUNNY 69 11 10 NE3 30.20F
CARSON CITY FAIR 70 10 10 E12G18 30.21F
MINDEN FAIR 68 12 11 N7 30.21
PYRAMID LAKE N/A 55 N/A N/A N6 N/A
FALLON MOSUNNY 67 6 9 NE6 30.21F
LOVELOCK SUNNY 66 11 11 SE5 30.22F
HAWTHORNE SUNNY 64 12 13 CALM 30.20F
$$

NVZ002-CAZ072-073-292100-
NORTHERN AND CENTRAL SIERRA

CITY SKY/WX TMP DP RH WIND PRES REMARKS
S. LAKE TAHOE SUNNY 65 17 15 N8 30.25F
TRUCKEE SUNNY 66 19 16 S5 30.24F
SQUAW VLY 8000 N/A 52 19 28 NE1 N/A
BLUE CANYON SUNNY 66 24 20 W7 30.23F
MAMMOTH LAKES FAIR 66 16 14 S5 30.28F
BRIDGEPORT FAIR 68 5 8 VRB3 30.20F
$$

NVZ030-031-036-292100-
NORTHERN NEVADA

CITY SKY/WX TMP DP RH WIND PRES REMARKS
ELKO SUNNY 64 9 11 VRB3 30.25F
WINNEMUCCA SUNNY 64 10 12 CALM 30.24F
WENDOVER SUNNY 57 19 23 SE6 30.30F
$$

NVZ035-037-292100-
CENTRAL NEVADA

CITY SKY/WX TMP DP RH WIND PRES REMARKS
ELY SUNNY 67 13 12 VRB6 30.27F
EUREKA N/A 67 11 11 VRB6 30.25F
$$

NVZ013-014-292100-
SOUTH CENTRAL NEVADA

CITY SKY/WX TMP DP RH WIND PRES REMARKS
TONOPAH MOSUNNY 71 12 10 SE9 30.23F
$$

NVZ017-020-022-292100-
SOUTHERN NEVADA

CITY SKY/WX TMP DP RH WIND PRES REMARKS
LAS VEGAS MOSUNNY 84 21 10 SE6 30.04F
N. LAS VEGAS SUNNY 83 17 8 SE10 30.08F
NELLIS AFB MOSUNNY 84 23 10 E5 30.05F
HENDERSON SUNNY 81 26 13 VRB3 30.11F
MERCURY SUNNY 81 13 7 VRB3 30.11F
$$


Webmaster
US Dept of Commerce
National Oceanic and Atmospheric Administration
National Weather Service
Western Region Headquarters
125 South State Street
Salt Lake City, UT 84138-1102

Disclaimer
Information Quality
Credits
Glossary
Organization
Privacy Policy
Freedom of Information Act
About Us
Career Opportunities